Location: Unspecified
(58.9933°N, 5.6375°E)
Time: 12:27:31
(UTC+01:00)

CZ-3 Stage 3 - Visible Passes

Search period start: 18 December 2014 00:00
Search period end: 28 December 2014 00:00
Orbit: 433 x 34798 km, 31.0° (Epoch: 16 December)

Date Brightness Start Highest point End Pass type
(mag) Time Alt. Az. Time Alt. Az. Time Alt. Az.
18 Dec 9.4 17:20:47 10° E 17:48:59 11° E 18:04:01 11° E visible
18 Dec 6.6 22:49:40 10° SW 05:23:51 24° WSW 05:38:44 10° SSW visible
19 Dec 7.1 18:23:08 10° SSE 01:57:33 36° SSE 02:08:20 10° SE visible
20 Dec 7.8 16:43:28 10° ESE 21:25:11 39° SE 21:30:03 39° SE visible
21 Dec 9.3 16:56:13 10° E 17:42:49 12° E 18:04:51 11° E visible
21 Dec 6.6 22:41:13 10° SW 05:21:47 23° WSW 05:33:41 10° SSW visible
22 Dec 7.0 18:12:52 10° SSE 01:55:25 32° SSE 02:03:39 10° SE visible
23 Dec 7.7 16:28:27 10° ESE 21:19:37 40° SE 21:30:36 39° SE visible
24 Dec 9.2 16:35:07 10° E 17:36:38 13° E 18:05:15 12° E visible
24 Dec 6.6 22:33:04 10° SW 05:19:31 21° SW 05:28:36 10° SSW visible
25 Dec 7.0 18:02:57 10° SSE 01:53:06 27° SSE 01:58:56 10° SE visible
26 Dec 8.9 16:13:35 10° ESE 21:13:59 41° SE 21:30:43 40° SE visible
27 Dec 9.1 16:15:34 10° E 17:30:24 14° E 18:05:14 12° E visible
27 Dec 10.6 22:25:10 10° SW 00:00:00 13° WSW 00:00:00 13° WSW visible
